sat.trackr.live / text

‹ back to catalog

STARLINK-37447

NORAD 68810 · 2026-089J

PAYLOAD ACTIVE UNKNOWN

§ Identity

Operator
Country
US
Launch date
2026-04-23
Launch site
AFWTR
Launch vehicle
Mass (kg)
RCS (m²)

Purposes: comms

External: N2YO · Heavens-Above · Gunter

§ Orbital elements

Epoch: 2026-05-25T02:45:12.608064Z

Period
91.42 min
Inclination
97.2845°
Eccentricity
0.0001462
Mean motion
15.75189710 rev/d
Perigee alt
343.1 km
Apogee alt
345.1 km
Semi-major
6,722.2 km
B*
1.3205e-3
RAAN
351.7599°
Arg perigee
70.9159°
Mean anomaly
289.2265°
Rev number
506

§ Raw data

STARLINK-374471 68810U 26089J   26145.11472926  .00201550  00000+0  13205-2 0  99932 68810  97.2845 351.7599 0001462  70.9159 289.2265 15.75189710  5062

JSON: /api/v1/satellites/68810 · /tle

For live sub-satellite position, see the globe view (requires WebGL).

§ Visibility from observer

Set your observer location to see the next 7 days of passes ≥ 10°. The values pass through the URL so the page stays shareable.

No JS? Fill the form by hand. The geolocation button needs JavaScript.